Zurück zum Katalog

CZ-4C R/B

AktivLEO
NORAD 52085·ROCKET BODY·🇨🇳 China

Gestartet Mar 17, 2022 von Jiuquan Satellite Launch Center

Loading…

Nächste Überflüge (nächste 24 Stunden)

TLE

AktuellSource: Space-Track

Epoche: Sep 14, 2026, 03:24 UTC

1 52085U 22027B   26257.14178023 -.00000062  00000-0  33744-4 0  9995
2 52085  63.3928 182.0938 0240514  22.3453 338.7852 13.65485042224180

Verfolge CZ-4C R/B in Echtzeit mit AllMySat

Download on the App Store